TAP1527 LPPT-DGAA

Flight info

Callsign TAP1527
Flight time N/A
Altitude 37000
Route DUZOP DCT MINTA N747 SVL M744 MGA DCT BERUM UL58 XAVOV UM999 MNA UA604 EREBO/N0447F380 DCT MIGNI DCT ABALA DCT IPUTA DCT TATAT DCT KILMO UB726 ACC
Aircraft A20N/M-SDE2E3FGHIRWXY/LB1

Departure

Time N/A
Airport Lisbon Humberto Delgado Airport (LPPT)

Arrival

Time 2026-04-30 22:11
Airport Kotoka International Airport (DGAA)
Time Latitude Longitude Altitude Speed Heading
2026-04-30 17:39 35.07047 -3.04951 37048 ft 425 kts 172°
2026-04-30 17:41 34.85136 -2.94109 37035 ft 432 kts 156°
2026-04-30 17:42 34.79835 -2.90667 37018 ft 432 kts 156°
2026-04-30 17:43 34.66600 -2.82095 36979 ft 431 kts 156°
2026-04-30 17:44 34.52327 -2.69038 36969 ft 446 kts 129°
2026-04-30 17:47 34.36145 -2.41553 36963 ft 445 kts 130°
2026-04-30 17:48 34.24133 -2.21320 36956 ft 445 kts 131°
2026-04-30 17:50 34.09659 -1.97090 36944 ft 445 kts 131°
2026-04-30 17:52 33.98813 -1.79040 36926 ft 444 kts 131°
2026-04-30 17:54 33.82006 -1.52601 36904 ft 440 kts 135°
2026-04-30 17:56 33.66387 -1.29930 36997 ft 439 kts 136°
2026-04-30 17:58 33.54730 -1.13114 36982 ft 437 kts 136°
2026-04-30 18:00 33.39149 -0.90761 36978 ft 437 kts 136°
2026-04-30 18:01 33.29389 -0.76829 36988 ft 438 kts 137°
2026-04-30 18:02 33.17638 -0.60125 36991 ft 440 kts 137°
2026-04-30 18:04 33.05771 -0.43332 36989 ft 441 kts 137°
2026-04-30 18:06 32.89898 -0.20995 36968 ft 443 kts 138°
2026-04-30 18:08 32.75904 -0.01410 36949 ft 445 kts 138°
2026-04-30 18:10 32.59815 0.20978 36938 ft 447 kts 139°
2026-04-30 18:11 32.45612 0.40629 36917 ft 449 kts 139°
2026-04-30 18:13 32.35422 0.54664 36909 ft 450 kts 139°
2026-04-30 18:14 32.25198 0.68693 36906 ft 451 kts 139°
2026-04-30 18:15 32.12870 0.85538 36895 ft 453 kts 140°
2026-04-30 18:16 32.04620 0.96770 36893 ft 453 kts 140°
2026-04-30 18:17 32.00510 1.02352 36895 ft 454 kts 140°
2026-04-30 18:18 31.94303 1.10769 36887 ft 454 kts 140°
2026-04-30 18:18 31.90163 1.16376 36884 ft 454 kts 140°
2026-04-30 18:19 31.85744 1.21546 36884 ft 443 kts 148°
2026-04-30 18:19 31.81085 1.26322 36883 ft 444 kts 148°
2026-04-30 18:20 31.76435 1.31115 36877 ft 445 kts 148°
2026-04-30 18:20 31.71780 1.35903 36882 ft 445 kts 148°
2026-04-30 18:21 31.67113 1.40692 36882 ft 445 kts 148°
2026-04-30 18:21 31.62444 1.45478 36880 ft 446 kts 148°
2026-04-30 18:22 31.57812 1.50342 36878 ft 452 kts 143°
2026-04-30 18:22 31.51546 1.58775 36876 ft 458 kts 141°
2026-04-30 18:23 31.47403 1.64385 36880 ft 458 kts 141°
2026-04-30 18:23 31.43220 1.70035 36878 ft 459 kts 141°
2026-04-30 18:24 31.36935 1.78507 36879 ft 460 kts 141°
2026-04-30 18:25 31.32735 1.84158 36881 ft 461 kts 141°
2026-04-30 18:25 31.26414 1.92647 36886 ft 462 kts 141°
2026-04-30 18:26 31.19865 2.00766 36884 ft 443 kts 155°
2026-04-30 18:26 31.17276 2.02575 36882 ft 426 kts 166°
2026-04-30 18:27 31.11755 2.04184 36879 ft 398 kts 187°
2026-04-30 18:28 31.03528 2.04280 36881 ft 396 kts 188°
2026-04-30 18:28 30.95255 2.04391 36885 ft 396 kts 188°
2026-04-30 18:29 30.84279 2.04540 36885 ft 394 kts 188°
2026-04-30 18:30 30.73313 2.04686 36882 ft 394 kts 188°
2026-04-30 18:31 30.65106 2.04796 36881 ft 393 kts 188°
2026-04-30 18:32 30.56905 2.04905 36877 ft 393 kts 188°
2026-04-30 18:33 30.48753 2.05013 36874 ft 392 kts 188°
2026-04-30 18:33 30.40568 2.05123 36862 ft 392 kts 188°
2026-04-30 18:34 30.32396 2.05232 36871 ft 391 kts 188°
2026-04-30 18:35 30.26959 2.05304 36873 ft 391 kts 188°
2026-04-30 18:35 30.21521 2.05375 36868 ft 391 kts 188°
2026-04-30 18:36 30.13377 2.05483 36860 ft 390 kts 188°
2026-04-30 18:37 30.06155 2.05578 36858 ft 390 kts 188°
2026-04-30 18:37 30.00733 2.05650 36862 ft 389 kts 189°
2026-04-30 18:38 29.94433 2.05733 36860 ft 389 kts 189°
2026-04-30 18:38 29.89017 2.05804 36861 ft 389 kts 189°
2026-04-30 18:39 29.84478 2.05864 36862 ft 389 kts 189°
2026-04-30 18:39 29.79060 2.05935 36866 ft 389 kts 189°
2026-04-30 18:40 29.73677 2.06006 36865 ft 390 kts 189°
2026-04-30 18:40 29.68254 2.06077 36865 ft 390 kts 189°
2026-04-30 18:41 29.62834 2.06147 36868 ft 390 kts 189°
2026-04-30 18:41 29.57414 2.06218 36869 ft 390 kts 189°
2026-04-30 18:42 29.51987 2.06289 36872 ft 390 kts 189°
2026-04-30 18:42 29.43847 2.06394 36873 ft 390 kts 189°
2026-04-30 18:45 29.14029 2.06782 36879 ft 390 kts 189°
2026-04-30 18:46 29.08602 2.06853 36882 ft 390 kts 189°
2026-04-30 18:46 29.03174 2.06923 36888 ft 390 kts 189°
2026-04-30 18:47 28.97751 2.06993 36887 ft 390 kts 189°
2026-04-30 18:47 28.92326 2.07064 36879 ft 390 kts 189°
2026-04-30 18:48 28.86907 2.07133 36880 ft 390 kts 189°
2026-04-30 18:48 28.81487 2.07203 36880 ft 389 kts 189°
2026-04-30 18:49 28.76068 2.07273 36879 ft 389 kts 189°
2026-04-30 18:49 28.70646 2.07342 36883 ft 389 kts 189°
2026-04-30 18:50 28.65229 2.07410 36882 ft 389 kts 189°
2026-04-30 18:50 28.59848 2.07479 36879 ft 389 kts 189°
2026-04-30 18:51 28.54430 2.07550 36879 ft 390 kts 189°
2026-04-30 18:51 28.49011 2.07619 36885 ft 390 kts 189°
2026-04-30 18:52 28.43579 2.07689 36888 ft 390 kts 189°
2026-04-30 18:52 28.38140 2.07758 36892 ft 391 kts 189°
2026-04-30 18:53 28.32697 2.07828 36891 ft 391 kts 189°
2026-04-30 18:53 28.27246 2.07897 36892 ft 392 kts 189°
2026-04-30 18:54 28.21787 2.07966 36895 ft 393 kts 189°
2026-04-30 18:54 28.16321 2.08036 36898 ft 393 kts 189°
2026-04-30 18:55 28.10849 2.08105 36898 ft 394 kts 189°
2026-04-30 18:55 28.02623 2.08210 36900 ft 394 kts 189°
2026-04-30 18:56 27.94414 2.08312 36904 ft 395 kts 189°
2026-04-30 18:57 27.86177 2.08418 36893 ft 395 kts 189°
2026-04-30 18:57 27.80677 2.08487 36891 ft 395 kts 189°
2026-04-30 18:58 27.72426 2.08592 36891 ft 396 kts 189°
2026-04-30 18:59 27.64165 2.08696 36888 ft 396 kts 189°
2026-04-30 19:00 27.53136 2.08834 36886 ft 397 kts 189°
2026-04-30 19:01 27.42077 2.08973 36887 ft 398 kts 189°
2026-04-30 19:02 27.33773 2.09077 36887 ft 398 kts 189°
2026-04-30 19:03 27.22684 2.09216 36888 ft 399 kts 189°
2026-04-30 19:04 27.11622 2.09355 36883 ft 398 kts 189°
2026-04-30 19:05 27.00542 2.09492 36882 ft 398 kts 189°
2026-04-30 19:06 26.89452 2.09630 36877 ft 399 kts 189°
2026-04-30 19:06 26.81126 2.09733 36873 ft 399 kts 189°
2026-04-30 19:07 26.72797 2.09836 36879 ft 399 kts 189°
2026-04-30 19:08 26.61678 2.09974 36883 ft 400 kts 189°
2026-04-30 19:09 26.53370 2.10076 36865 ft 400 kts 189°
2026-04-30 19:09 26.47810 2.10145 36877 ft 400 kts 189°
2026-04-30 19:10 26.36689 2.10281 36881 ft 400 kts 189°
2026-04-30 19:11 26.28346 2.10384 36875 ft 400 kts 189°
2026-04-30 19:12 26.22785 2.10452 36876 ft 400 kts 189°
2026-04-30 19:12 26.17223 2.10520 36875 ft 400 kts 189°
2026-04-30 19:13 26.06085 2.10657 36879 ft 400 kts 189°
2026-04-30 19:14 26.00555 2.10724 36879 ft 400 kts 189°
2026-04-30 19:14 25.94985 2.10792 36878 ft 401 kts 189°
2026-04-30 19:15 25.89408 2.10860 36874 ft 401 kts 189°
2026-04-30 19:15 25.81035 2.10962 36877 ft 401 kts 189°
2026-04-30 19:16 25.75442 2.11030 36880 ft 402 kts 189°
2026-04-30 19:17 25.67046 2.11131 36883 ft 403 kts 189°
2026-04-30 19:17 25.58633 2.11233 36884 ft 404 kts 189°
2026-04-30 19:18 25.50200 2.11336 36888 ft 404 kts 189°
2026-04-30 19:19 25.44571 2.11404 36891 ft 405 kts 189°
2026-04-30 19:19 25.36148 2.11506 36893 ft 406 kts 189°
2026-04-30 19:20 25.30497 2.11574 36896 ft 406 kts 189°
2026-04-30 19:21 25.22016 2.11677 36895 ft 407 kts 189°
2026-04-30 19:22 25.10689 2.11813 36890 ft 407 kts 189°
2026-04-30 19:23 24.93693 2.12018 36894 ft 407 kts 189°
2026-04-30 19:24 24.85231 2.12120 36899 ft 407 kts 188°
2026-04-30 19:25 24.71006 2.12288 36908 ft 408 kts 188°
2026-04-30 19:26 24.59634 2.12424 36910 ft 409 kts 188°
2026-04-30 19:27 24.51136 2.12526 36908 ft 409 kts 188°
2026-04-30 19:28 24.42592 2.12628 36919 ft 410 kts 188°
2026-04-30 19:29 24.31182 2.12763 36920 ft 411 kts 188°
2026-04-30 19:30 24.19738 2.12899 36924 ft 412 kts 188°
2026-04-30 19:31 24.08267 2.13035 36924 ft 413 kts 188°
2026-04-30 19:31 23.99639 2.13137 36930 ft 414 kts 188°
2026-04-30 19:32 23.93874 2.13206 36933 ft 415 kts 188°
2026-04-30 19:32 23.89073 2.13262 36937 ft 415 kts 188°
2026-04-30 19:33 23.82346 2.13342 36937 ft 416 kts 188°
2026-04-30 19:33 23.76547 2.13410 36946 ft 417 kts 188°
2026-04-30 19:34 23.71682 2.13468 36948 ft 418 kts 188°
2026-04-30 19:35 23.62995 2.13570 36951 ft 418 kts 187°
2026-04-30 19:35 23.57167 2.13639 36951 ft 419 kts 187°
2026-04-30 19:36 23.51335 2.13707 36957 ft 419 kts 187°
2026-04-30 19:36 23.42577 2.13810 36952 ft 420 kts 187°
2026-04-30 19:37 23.36731 2.13879 36952 ft 420 kts 187°
2026-04-30 19:37 23.30877 2.13948 36951 ft 421 kts 187°
2026-04-30 19:38 23.25024 2.14016 36951 ft 421 kts 187°
2026-04-30 19:38 23.19168 2.14085 36952 ft 421 kts 187°
2026-04-30 19:39 23.13308 2.14153 36950 ft 421 kts 187°
2026-04-30 19:39 23.07442 2.14222 36948 ft 422 kts 187°
2026-04-30 19:40 23.01573 2.14290 36949 ft 422 kts 187°
2026-04-30 19:40 22.95700 2.14358 36948 ft 422 kts 187°
2026-04-30 19:41 22.89825 2.14427 36950 ft 422 kts 187°
2026-04-30 19:41 22.83984 2.14495 36947 ft 423 kts 187°
2026-04-30 19:42 22.78099 2.14563 36949 ft 423 kts 187°
2026-04-30 19:42 22.72208 2.14632 36953 ft 423 kts 187°
2026-04-30 19:43 22.66315 2.14700 36954 ft 424 kts 187°
2026-04-30 19:44 22.57468 2.14803 36952 ft 424 kts 187°
2026-04-30 19:44 22.51557 2.14871 36952 ft 424 kts 187°
2026-04-30 19:45 22.45652 2.14940 36948 ft 425 kts 187°
2026-04-30 19:45 22.39740 2.15008 36948 ft 425 kts 187°
2026-04-30 19:46 22.33864 2.15076 36945 ft 425 kts 187°
2026-04-30 19:46 22.27943 2.15144 36944 ft 425 kts 187°
2026-04-30 19:47 22.22020 2.15213 36940 ft 426 kts 187°
2026-04-30 19:47 22.16093 2.15281 36938 ft 426 kts 186°
2026-04-30 19:48 22.10161 2.15349 36938 ft 427 kts 186°
2026-04-30 19:48 22.04214 2.15417 36937 ft 427 kts 186°
2026-04-30 19:49 21.98263 2.15486 36942 ft 428 kts 186°
2026-04-30 19:49 21.89321 2.15588 36944 ft 429 kts 186°
2026-04-30 19:50 21.83343 2.15657 36945 ft 430 kts 186°
2026-04-30 19:50 21.77358 2.15726 36947 ft 431 kts 186°
2026-04-30 19:51 21.71363 2.15794 36951 ft 431 kts 186°
2026-04-30 19:51 21.65359 2.15863 36956 ft 432 kts 186°
2026-04-30 19:52 21.59345 2.15932 36958 ft 432 kts 186°
2026-04-30 19:52 21.53329 2.16001 36961 ft 433 kts 186°
2026-04-30 19:53 21.47308 2.16070 36963 ft 433 kts 186°
2026-04-30 19:53 21.41287 2.16139 36963 ft 433 kts 186°
2026-04-30 19:54 21.35300 2.16207 36967 ft 433 kts 186°
2026-04-30 19:54 21.29279 2.16276 36968 ft 433 kts 186°
2026-04-30 19:55 21.23264 2.16344 36965 ft 432 kts 186°
2026-04-30 19:55 21.17247 2.16413 36963 ft 432 kts 186°
2026-04-30 19:56 21.11237 2.16481 36969 ft 432 kts 186°
2026-04-30 19:56 21.05229 2.16549 36968 ft 431 kts 186°
2026-04-30 19:57 20.99225 2.16617 36965 ft 431 kts 186°
2026-04-30 19:57 20.93221 2.16685 36967 ft 431 kts 186°
2026-04-30 19:58 20.87221 2.16752 36963 ft 431 kts 186°
2026-04-30 19:58 20.81212 2.16820 36963 ft 432 kts 186°
2026-04-30 19:59 20.75213 2.16888 36966 ft 432 kts 186°
2026-04-30 20:00 20.66182 2.16990 36962 ft 432 kts 186°
2026-04-30 20:00 20.60164 2.17058 36963 ft 433 kts 186°
2026-04-30 20:01 20.51161 2.17160 36976 ft 434 kts 186°
2026-04-30 20:01 20.45125 2.17228 36973 ft 434 kts 186°
2026-04-30 20:02 20.36058 2.17330 36974 ft 435 kts 185°
2026-04-30 20:03 20.26976 2.17432 36978 ft 435 kts 185°
2026-04-30 20:03 20.20914 2.17500 36979 ft 436 kts 185°
2026-04-30 20:04 20.14846 2.17568 36979 ft 436 kts 185°
2026-04-30 20:05 20.05736 2.17670 36975 ft 437 kts 185°
2026-04-30 20:05 19.96650 2.17772 36974 ft 437 kts 185°
2026-04-30 20:06 19.90570 2.17840 36967 ft 437 kts 185°
2026-04-30 20:06 19.84488 2.17908 36963 ft 437 kts 185°
2026-04-30 20:07 19.78408 2.17976 36956 ft 437 kts 185°
2026-04-30 20:08 19.69286 2.18077 36948 ft 437 kts 185°
2026-04-30 20:08 19.63204 2.18145 36943 ft 437 kts 185°
2026-04-30 20:09 19.57126 2.18213 36940 ft 437 kts 185°
2026-04-30 20:09 19.48039 2.18313 36934 ft 437 kts 185°
2026-04-30 20:10 19.38905 2.18414 36931 ft 438 kts 184°
2026-04-30 20:11 19.29752 2.18515 36931 ft 439 kts 184°
2026-04-30 20:11 19.23639 2.18583 36932 ft 439 kts 184°
2026-04-30 20:12 19.14460 2.18684 36926 ft 440 kts 184°
2026-04-30 20:13 19.08334 2.18752 36929 ft 441 kts 184°
2026-04-30 20:13 19.02201 2.18820 36929 ft 441 kts 184°
2026-04-30 20:14 18.96068 2.18888 36921 ft 441 kts 184°
2026-04-30 20:14 18.89934 2.18955 36923 ft 441 kts 184°
2026-04-30 20:15 18.83794 2.19023 36916 ft 441 kts 184°
2026-04-30 20:15 18.77662 2.19091 36920 ft 441 kts 184°
2026-04-30 20:16 18.71524 2.19158 36912 ft 441 kts 184°
2026-04-30 20:16 18.65397 2.19226 36908 ft 440 kts 184°
2026-04-30 20:17 18.59270 2.19293 36903 ft 440 kts 183°
2026-04-30 20:17 18.53147 2.19360 36900 ft 440 kts 183°
2026-04-30 20:18 18.47031 2.19427 36893 ft 439 kts 183°
2026-04-30 20:18 18.40920 2.19494 36893 ft 439 kts 183°
2026-04-30 20:19 18.34814 2.19561 36884 ft 439 kts 183°
2026-04-30 20:19 18.28713 2.19628 36881 ft 438 kts 183°
2026-04-30 20:20 18.22616 2.19695 36877 ft 438 kts 183°
2026-04-30 20:20 18.16556 2.19761 36877 ft 438 kts 183°
2026-04-30 20:21 18.10463 2.19828 36874 ft 438 kts 183°
2026-04-30 20:21 18.04364 2.19894 36875 ft 438 kts 183°
2026-04-30 20:22 17.98260 2.19961 36866 ft 439 kts 182°
2026-04-30 20:22 17.92159 2.20028 36870 ft 439 kts 182°
2026-04-30 20:23 17.86049 2.20094 36867 ft 439 kts 182°
2026-04-30 20:23 17.79935 2.20161 36866 ft 439 kts 182°
2026-04-30 20:24 17.73821 2.20228 36868 ft 440 kts 182°
2026-04-30 20:24 17.67696 2.20294 36866 ft 440 kts 182°
2026-04-30 20:25 17.58515 2.20394 36864 ft 441 kts 182°
2026-04-30 20:26 17.49305 2.20494 36866 ft 441 kts 182°
2026-04-30 20:26 17.40144 2.20594 36863 ft 441 kts 182°
2026-04-30 20:27 17.27859 2.20727 36859 ft 441 kts 182°
2026-04-30 20:28 17.16606 2.20849 36860 ft 442 kts 182°
2026-04-30 20:30 17.01249 2.21015 36851 ft 441 kts 182°
2026-04-30 20:31 16.82833 2.21213 36843 ft 441 kts 182°
2026-04-30 20:32 16.67511 2.21378 36842 ft 441 kts 181°
2026-04-30 20:33 16.58355 2.21477 36837 ft 441 kts 181°
2026-04-30 20:34 16.49153 2.21576 36841 ft 441 kts 181°
2026-04-30 20:35 16.39948 2.21675 36839 ft 441 kts 181°
2026-04-30 20:35 16.30741 2.21773 36839 ft 441 kts 181°
2026-04-30 20:36 16.24595 2.21839 36840 ft 442 kts 181°
2026-04-30 20:37 16.15371 2.21938 36840 ft 442 kts 181°
2026-04-30 20:37 16.09221 2.22004 36843 ft 442 kts 181°
2026-04-30 20:38 16.03069 2.22070 36843 ft 442 kts 181°
2026-04-30 20:38 15.96919 2.22135 36841 ft 442 kts 181°
2026-04-30 20:39 15.87682 2.22234 36840 ft 442 kts 181°
2026-04-30 20:40 15.78451 2.22333 36842 ft 442 kts 181°
2026-04-30 20:40 15.72331 2.22398 36843 ft 442 kts 181°
2026-04-30 20:41 15.63097 2.22496 36840 ft 443 kts 181°
2026-04-30 20:41 15.56938 2.22562 36838 ft 443 kts 181°
2026-04-30 20:42 15.50776 2.22628 36840 ft 443 kts 181°
2026-04-30 20:43 15.41538 2.22726 36839 ft 443 kts 181°
2026-04-30 20:43 15.35374 2.22791 36837 ft 443 kts 180°
2026-04-30 20:44 15.26128 2.22890 36838 ft 443 kts 180°
2026-04-30 20:45 15.13793 2.23021 36842 ft 443 kts 180°
2026-04-30 20:45 15.07660 2.23086 36841 ft 444 kts 180°
2026-04-30 20:46 14.95306 2.23217 36838 ft 444 kts 180°
2026-04-30 20:47 14.86031 2.23315 36841 ft 445 kts 180°
2026-04-30 20:48 14.76750 2.23413 36841 ft 445 kts 180°
2026-04-30 20:48 14.70557 2.23479 36844 ft 445 kts 180°
2026-04-30 20:49 14.64360 2.23544 36846 ft 445 kts 180°
2026-04-30 20:50 14.55057 2.23643 36844 ft 446 kts 180°
2026-04-30 20:50 14.48893 2.23708 36843 ft 446 kts 180°
2026-04-30 20:51 14.42680 2.23773 36841 ft 446 kts 180°
2026-04-30 20:51 14.33360 2.23871 36846 ft 447 kts 180°
2026-04-30 20:52 14.27141 2.23937 36844 ft 447 kts 180°
2026-04-30 20:53 14.17809 2.24035 36840 ft 447 kts 180°
2026-04-30 20:53 14.11589 2.24100 36850 ft 447 kts 180°
2026-04-30 20:54 14.02240 2.24198 36844 ft 448 kts 180°
2026-04-30 20:55 13.92894 2.24296 36849 ft 448 kts 179°
2026-04-30 20:55 13.86660 2.24362 36849 ft 448 kts 179°
2026-04-30 20:56 13.77310 2.24460 36852 ft 448 kts 179°
2026-04-30 20:57 13.68003 2.24557 36858 ft 448 kts 179°
2026-04-30 20:57 13.61775 2.24622 36857 ft 448 kts 179°
2026-04-30 20:58 13.52428 2.24720 36859 ft 448 kts 179°
2026-04-30 20:58 13.46202 2.24785 36858 ft 447 kts 179°
2026-04-30 20:59 13.36864 2.24883 36858 ft 447 kts 179°
2026-04-30 21:00 13.24421 2.25012 36851 ft 447 kts 179°
2026-04-30 21:01 13.15096 2.25110 36849 ft 447 kts 179°
2026-04-30 21:02 13.05767 2.25207 36849 ft 447 kts 179°
2026-04-30 21:02 12.99595 2.25271 36848 ft 447 kts 179°
2026-04-30 21:03 12.93336 2.25336 36847 ft 447 kts 179°
2026-04-30 21:03 12.87121 2.25401 36848 ft 447 kts 179°
2026-04-30 21:04 12.80905 2.25465 36857 ft 447 kts 179°
2026-04-30 21:04 12.71573 2.25562 36857 ft 447 kts 179°
2026-04-30 21:05 12.65394 2.25626 36856 ft 447 kts 179°
2026-04-30 21:05 12.59126 2.25691 36858 ft 447 kts 179°
2026-04-30 21:06 12.52941 2.25755 36859 ft 448 kts 179°
2026-04-30 21:06 12.46712 2.25820 36862 ft 448 kts 179°
2026-04-30 21:07 12.40482 2.25885 36864 ft 448 kts 179°
2026-04-30 21:07 12.34247 2.25949 36865 ft 448 kts 179°
2026-04-30 21:08 12.28011 2.26014 36868 ft 448 kts 179°
2026-04-30 21:08 12.21771 2.26078 36870 ft 449 kts 179°
2026-04-30 21:09 12.15527 2.26142 36872 ft 449 kts 178°
2026-04-30 21:09 12.09282 2.26207 36872 ft 449 kts 178°
2026-04-30 21:10 12.03034 2.26272 36875 ft 449 kts 178°
2026-04-30 21:10 11.96781 2.26336 36878 ft 449 kts 178°
2026-04-30 21:11 11.90524 2.26401 36880 ft 450 kts 178°
2026-04-30 21:11 11.84263 2.26465 36880 ft 450 kts 178°
2026-04-30 21:12 11.78001 2.26530 36883 ft 450 kts 178°
2026-04-30 21:12 11.71779 2.26594 36883 ft 450 kts 178°
2026-04-30 21:13 11.65513 2.26659 36890 ft 450 kts 178°
2026-04-30 21:13 11.59243 2.26723 36894 ft 451 kts 178°
2026-04-30 21:14 11.52971 2.26788 36901 ft 451 kts 178°
2026-04-30 21:14 11.46702 2.26852 36903 ft 451 kts 178°
2026-04-30 21:15 11.40435 2.26916 36904 ft 451 kts 178°
2026-04-30 21:15 11.34163 2.26981 36908 ft 451 kts 178°
2026-04-30 21:16 11.27896 2.27045 36911 ft 450 kts 178°
2026-04-30 21:16 11.21627 2.27110 36914 ft 450 kts 178°
2026-04-30 21:17 11.15402 2.27174 36912 ft 450 kts 178°
2026-04-30 21:17 11.09138 2.27238 36918 ft 451 kts 178°
2026-04-30 21:18 11.02882 2.26891 36916 ft 453 kts 191°
2026-04-30 21:18 10.97006 2.24573 36909 ft 457 kts 210°
2026-04-30 21:19 10.91974 2.20611 36911 ft 459 kts 218°
2026-04-30 21:19 10.87044 2.16475 36914 ft 459 kts 218°
2026-04-30 21:20 10.82109 2.12345 36924 ft 460 kts 218°
2026-04-30 21:20 10.77162 2.08204 36926 ft 461 kts 218°
2026-04-30 21:21 10.72210 2.04060 36937 ft 461 kts 218°
2026-04-30 21:22 10.65603 1.98534 36948 ft 462 kts 218°
2026-04-30 21:23 10.55672 1.90234 36943 ft 460 kts 218°
2026-04-30 21:23 10.48239 1.84027 36945 ft 461 kts 218°
2026-04-30 21:24 10.43284 1.79891 36947 ft 461 kts 218°
2026-04-30 21:24 10.38332 1.75760 36952 ft 461 kts 218°
2026-04-30 21:25 10.30903 1.69565 36952 ft 461 kts 218°
2026-04-30 21:26 10.23475 1.63375 36956 ft 460 kts 218°
2026-04-30 21:27 10.16047 1.57188 36958 ft 460 kts 218°
2026-04-30 21:27 10.11096 1.53067 36959 ft 460 kts 218°
2026-04-30 21:28 10.03704 1.46917 36955 ft 460 kts 218°
2026-04-30 21:29 9.96274 1.40739 36953 ft 460 kts 218°
2026-04-30 21:30 9.83890 1.30450 36984 ft 460 kts 218°
2026-04-30 21:31 9.71492 1.20161 37009 ft 461 kts 218°
2026-04-30 21:32 9.64043 1.13983 37003 ft 461 kts 218°
2026-04-30 21:32 9.59115 1.09898 36994 ft 461 kts 218°
2026-04-30 21:33 9.51654 1.03716 36974 ft 462 kts 218°
2026-04-30 21:34 9.46395 1.00016 36961 ft 460 kts 207°
2026-04-30 21:34 9.40542 0.97469 36958 ft 457 kts 195°
2026-04-30 21:34 9.37492 0.96560 36955 ft 457 kts 194°
2026-04-30 21:35 9.31399 0.94731 36967 ft 457 kts 195°
2026-04-30 21:35 9.25302 0.92893 36963 ft 457 kts 194°
2026-04-30 21:36 9.19205 0.91058 36969 ft 457 kts 194°
2026-04-30 21:37 9.07033 0.87399 36968 ft 458 kts 194°
2026-04-30 21:37 9.00886 0.85552 36971 ft 458 kts 194°
2026-04-30 21:38 8.94778 0.83718 36973 ft 458 kts 194°
2026-04-30 21:38 8.88713 0.81897 36971 ft 458 kts 194°
2026-04-30 21:39 8.82605 0.80064 36979 ft 458 kts 194°
2026-04-30 21:39 8.76491 0.78230 36979 ft 458 kts 194°
2026-04-30 21:40 8.70373 0.76420 36980 ft 458 kts 194°
2026-04-30 21:40 8.64252 0.74622 36982 ft 458 kts 194°
2026-04-30 21:41 8.58130 0.72821 36982 ft 458 kts 194°
2026-04-30 21:41 8.52012 0.71020 36983 ft 458 kts 194°
2026-04-30 21:42 8.45896 0.69220 36983 ft 458 kts 194°
2026-04-30 21:42 8.39826 0.67433 36982 ft 457 kts 194°
2026-04-30 21:43 8.33719 0.65637 36980 ft 457 kts 194°
2026-04-30 21:43 8.27612 0.63841 36980 ft 457 kts 194°
2026-04-30 21:44 8.21509 0.62047 36980 ft 457 kts 194°
2026-04-30 21:44 8.15409 0.60255 36976 ft 457 kts 194°
2026-04-30 21:45 8.09306 0.58462 36976 ft 457 kts 194°
2026-04-30 21:45 8.03211 0.56672 36976 ft 456 kts 194°
2026-04-30 21:46 7.97118 0.54860 36972 ft 456 kts 195°
2026-04-30 21:46 7.91042 0.53011 36971 ft 456 kts 195°
2026-04-30 21:47 7.84963 0.51168 36966 ft 456 kts 194°
2026-04-30 21:47 7.78884 0.49329 36971 ft 456 kts 194°
2026-04-30 21:48 7.72806 0.47492 36968 ft 456 kts 194°
2026-04-30 21:48 7.66726 0.45655 36966 ft 456 kts 194°
2026-04-30 21:49 7.60649 0.43820 36966 ft 456 kts 194°
2026-04-30 21:49 7.54573 0.41985 36960 ft 456 kts 194°
2026-04-30 21:50 7.48540 0.40164 36959 ft 456 kts 194°
2026-04-30 21:50 7.42476 0.38334 36699 ft 454 kts 194°
2026-04-30 21:51 7.39448 0.37420 36010 ft 455 kts 194°
2026-04-30 21:51 7.36396 0.36500 34761 ft 462 kts 194°
2026-04-30 21:51 7.33234 0.35548 33238 ft 474 kts 195°
2026-04-30 21:51 7.30046 0.34587 31797 ft 481 kts 195°
2026-04-30 21:52 7.26827 0.33616 30469 ft 485 kts 195°
2026-04-30 21:52 7.23581 0.32637 28999 ft 489 kts 195°
2026-04-30 21:52 7.20327 0.31654 27876 ft 485 kts 195°
2026-04-30 21:52 7.17120 0.30686 26977 ft 480 kts 195°
2026-04-30 21:53 7.13988 0.29740 26431 ft 472 kts 194°
2026-04-30 21:53 7.10865 0.28799 25837 ft 466 kts 194°
2026-04-30 21:53 7.07780 0.27869 25252 ft 461 kts 194°
2026-04-30 21:53 7.04730 0.26950 24704 ft 455 kts 194°
2026-04-30 21:54 7.01718 0.26043 24152 ft 449 kts 194°
2026-04-30 21:54 6.98735 0.25145 23591 ft 445 kts 194°
2026-04-30 21:54 6.95784 0.24256 23014 ft 439 kts 194°
2026-04-30 21:54 6.92878 0.23381 22480 ft 433 kts 194°
2026-04-30 21:55 6.90012 0.22517 21931 ft 427 kts 194°
2026-04-30 21:55 6.87186 0.21666 21397 ft 421 kts 194°
2026-04-30 21:55 6.84395 0.20827 20871 ft 416 kts 194°
2026-04-30 21:55 6.81640 0.19998 20345 ft 411 kts 194°
2026-04-30 21:56 6.78912 0.19178 19819 ft 407 kts 194°
2026-04-30 21:56 6.76215 0.18366 19271 ft 403 kts 194°
2026-04-30 21:56 6.73543 0.17563 18743 ft 400 kts 194°
2026-04-30 21:56 6.70892 0.16766 18246 ft 396 kts 194°
2026-04-30 21:57 6.68302 0.15987 17736 ft 391 kts 194°
2026-04-30 21:57 6.65712 0.15208 17224 ft 386 kts 194°
2026-04-30 21:57 6.63154 0.14438 16735 ft 381 kts 194°
2026-04-30 21:57 6.60628 0.13679 16247 ft 377 kts 194°
2026-04-30 21:58 6.58124 0.12932 15759 ft 373 kts 193°
2026-04-30 21:58 6.55638 0.12225 15277 ft 370 kts 192°
2026-04-30 21:58 6.53169 0.11537 14780 ft 367 kts 192°
2026-04-30 21:58 6.50719 0.10855 14326 ft 364 kts 192°
2026-04-30 21:59 6.48285 0.10175 13843 ft 361 kts 192°
2026-04-30 21:59 6.45873 0.09497 13342 ft 359 kts 192°
2026-04-30 21:59 6.43487 0.08825 12884 ft 354 kts 192°
2026-04-30 22:00 6.38778 0.07496 11973 ft 348 kts 192°
2026-04-30 22:00 6.34150 0.06192 11067 ft 343 kts 192°
2026-04-30 22:00 6.31858 0.05546 10615 ft 341 kts 191°
2026-04-30 22:01 6.29595 0.04907 10338 ft 333 kts 191°
2026-04-30 22:01 6.27429 0.04294 10210 ft 321 kts 191°
2026-04-30 22:01 6.25291 0.03689 10025 ft 311 kts 191°
2026-04-30 22:01 6.23235 0.03109 9826 ft 303 kts 191°
2026-04-30 22:02 6.21204 0.02539 9661 ft 307 kts 191°
2026-04-30 22:02 6.19121 0.01959 9274 ft 313 kts 191°
2026-04-30 22:02 6.17026 0.01371 8965 ft 310 kts 191°
2026-04-30 22:02 6.14961 0.00788 8640 ft 307 kts 191°
2026-04-30 22:03 6.12945 0.00220 8265 ft 304 kts 191°
2026-04-30 22:03 6.10910 -0.00352 7867 ft 303 kts 192°
2026-04-30 22:03 6.08886 -0.00921 7473 ft 301 kts 192°
2026-04-30 22:03 6.06870 -0.01487 7085 ft 300 kts 192°
2026-04-30 22:04 6.04866 -0.02050 6713 ft 299 kts 192°
2026-04-30 22:04 6.02867 -0.02612 6338 ft 297 kts 192°
2026-04-30 22:04 5.98907 -0.03724 5618 ft 294 kts 193°
2026-04-30 22:05 5.96946 -0.04274 5250 ft 292 kts 193°
2026-04-30 22:05 5.94997 -0.04822 4878 ft 290 kts 194°
2026-04-30 22:05 5.93059 -0.05366 4500 ft 288 kts 194°
2026-04-30 22:05 5.91137 -0.05907 4146 ft 286 kts 194°
2026-04-30 22:06 5.89236 -0.06443 3805 ft 282 kts 194°
2026-04-30 22:06 5.85483 -0.07499 3113 ft 277 kts 194°
2026-04-30 22:06 5.83636 -0.08019 2782 ft 274 kts 194°
2026-04-30 22:07 5.81807 -0.08534 2462 ft 271 kts 194°
2026-04-30 22:07 5.80001 -0.09032 2188 ft 266 kts 193°
2026-04-30 22:07 5.78258 -0.09511 2099 ft 253 kts 196°
2026-04-30 22:07 5.76641 -0.10078 2052 ft 240 kts 200°
2026-04-30 22:08 5.75127 -0.10688 1997 ft 229 kts 201°
2026-04-30 22:08 5.73699 -0.11277 1991 ft 215 kts 201°
2026-04-30 22:08 5.72379 -0.11823 1989 ft 193 kts 201°
2026-04-30 22:08 5.71185 -0.12316 2050 ft 188 kts 201°
2026-04-30 22:09 5.69965 -0.12821 1886 ft 187 kts 201°
2026-04-30 22:09 5.68815 -0.13297 1661 ft 173 kts 201°
2026-04-30 22:09 5.67746 -0.13739 1451 ft 165 kts 201°
2026-04-30 22:09 5.66708 -0.14168 1205 ft 157 kts 201°
2026-04-30 22:10 5.65734 -0.14585 1003 ft 148 kts 202°
2026-04-30 22:10 5.64793 -0.14986 826 ft 149 kts 201°
2026-04-30 22:10 5.63841 -0.15375 685 ft 147 kts 200°
2026-04-30 22:10 5.62893 -0.15757 514 ft 146 kts 200°
2026-04-30 22:11 5.61003 -0.16528 206 ft 138 kts 201°
2026-04-30 22:11 5.60191 -0.16854 207 ft 103 kts 202°
2026-04-30 22:11 5.59712 -0.17052 202 ft 46 kts 203°
2026-04-30 22:12 5.59453 -0.17160 194 ft 40 kts 202°
2026-04-30 22:12 5.59228 -0.17258 192 ft 28 kts 213°
2026-04-30 22:12 5.59204 -0.17411 199 ft 21 kts 315°
2026-04-30 22:12 5.59330 -0.17420 195 ft 20 kts 20°
2026-04-30 22:13 5.59465 -0.17366 201 ft 22 kts 22°
2026-04-30 22:13 5.59609 -0.17305 198 ft 23 kts 23°
2026-04-30 22:13 5.59754 -0.17246 204 ft 22 kts 21°
2026-04-30 22:13 5.59891 -0.17190 197 ft 13 kts 22°
2026-04-30 22:14 5.59981 -0.17152 195 ft 15 kts 22°
2026-04-30 22:14 5.60054 -0.17148 197 ft 10 kts 321°
2026-04-30 22:14 5.60092 -0.17211 198 ft 9 kts 290°
2026-04-30 22:14 5.60097 -0.17224 200 ft 0 kts 291°